User: anonymous
Location: Unspecified
(0.0000°N, 0.0000°E)
Time: 13:59:24
(UTC+02:00)
Language:

ARIANE 5 R/B - Orbit

View from above orbital plane
View from above orbital plane
View from above satellite
View from above satellite

Ground track
Ground track

The orbit data is extracted from the following two-line orbital elements,

1 28379U 04027B   14240.17722905  .00000012  00000-0  26805-3 0  6899
2 28379 007.3395 317.5763 7286381 108.6540 337.5102 02.07919467 76839
Epoch (UTC): 28 August 2014 04:15:12
Eccentricity: 0.7286381
inclination: 7.3395°
perigee height: 658 km
apogee height: 38445 km
right ascension of ascending node: 317.5763°
argument of perigee: 108.6540°
revolutions per day: 2.07919467
mean anomaly at epoch: 337.5102°
orbit number at epoch: 7683

The dashed part of the orbit path shows where the satellite is in the earth's shadow,  

DLR